Location: Ernsee
(50.8780°N, 12.0389°E)
Time: 19:28:52
(UTC+00:00)

Cosmos 1452 Rocket - Pass Details

Date: 20 January 2020
Orbit: 768 x 774 km, 74.1° (Epoch: 16 February)

Event Time Altitude Azimuth Distance (km) Brightness Sun altitude
Exits shadow 05:47:01 - 339° (NNW) 3,076 6.3 -11.9°
Reaches altitude 10° 05:49:01 10° 344° (NNW) 2,327 5.7 -11.6°
Maximum altitude 05:54:08 48° 59° (ENE) 1,007 4.4 -10.8°
Drops below altitude 10° 05:59:11 10° 133° (SE) 2,309 7.2 -10.0°
Sets 06:01:38 0° 139° (SE) 3,231 7.9 -9.7°
